This demonstration page uses our WeatherBlox Daily Observations layout. Learn more.

Left ArrowRight Arrow

39.12711, -84.51439

Hourly Observations for June 6, 2017

Temp ( °F °C ) Dew Point ( °F °C ) Humidity (%) Winds ( mph kmh ) Pressure ( in mb ) Visibility ( mi km ) Precip ( " mm )
12:53 am 00:53 Clear 67 19.4 61 16.1 81 81 NE 10 17 29.84 1011 10 16 0.00 0.00
1:53 am 01:53 Mostly Clear 64 17.8 57 13.9 78 78 NE 10 17 29.85 1011 10 16 0.00 0.00
2:53 am 02:53 Clear 62 16.7 56 13.3 80 80 NNE 8 13 29.85 1011 10 16 0.00 0.00
3:53 am 03:53 Clear 61 16.1 55 12.8 81 81 NE 6 9 29.87 1011 10 16 0.00 0.00
4:53 am 04:53 Mostly Clear 59 15 55 12.8 87 87 NE 7 11 29.88 1012 10 16 0.00 0.00
5:53 am 05:53 Mostly Clear 58 14.4 54 12.2 87 87 NNE 6 9 29.89 1012 10 16 0.00 0.00
6:53 am 06:53 Sunny 57 13.9 54 12.2 90 90 NNE 6 9 29.91 1013 10 16 0.00 0.00
7:53 am 07:53 Sunny 61 16.1 55 12.8 81 81 NE 8 13 29.93 1014 10 16 0.00 0.00
8:53 am 08:53 Sunny 64 17.8 55 12.8 73 73 ENE 7 11 29.95 1014 10 16 0.00 0.00
9:53 am 09:53 Sunny 67 19.4 54 12.2 63 63 NNE 8 13 29.94 1014 10 16 0.00 0.00
10:53 am 10:53 Sunny 70 21.1 55 12.8 59 59 N 12 19 29.94 1014 10 16 0.00 0.00
11:53 am 11:53 Sunny 73 22.8 52 11.1 48 48 NNE 14 22 29.93 1013 10 16 0.00 0.00
12:53 pm 12:53 Sunny 73 22.8 52 11.1 48 48 NNE 9 15 29.92 1013 10 16 0.00 0.00
1:53 pm 13:53 Sunny 74 23.3 51 10.6 45 45 N 9 15 29.91 1013 10 16 0.00 0.00
2:53 pm 14:53 Mostly Sunny 76 24.4 51 10.6 42 42 N 10 17 29.89 1012 10 16 0.00 0.00
3:53 pm 15:53 Mostly Cloudy 78 25.6 52 11.1 40 40 N 13 20 29.88 1012 10 16 0.00 0.00
4:53 pm 16:53 Mostly Cloudy 78 25.6 51 10.6 39 39 NE 13 20 29.88 1012 10 16 0.00 0.00
5:53 pm 17:53 Mostly Sunny 75 23.9 50 10 41 41 NE 10 17 29.89 1012 10 16 0.00 0.00
6:53 pm 18:53 Mostly Sunny 76 24.4 51 10.6 42 42 N 10 17 29.88 1012 10 16 0.00 0.00
7:53 pm 19:53 Mostly Sunny 72 22.2 51 10.6 48 48 N 7 11 29.90 1012 10 16 0.00 0.00
8:53 pm 20:53 Sunny 70 21.1 49 9.4 47 47 NNE 8 13 29.91 1013 10 16 0.00 0.00
9:53 pm 21:53 Clear 66 18.9 51 10.6 59 59 NE 8 13 29.93 1014 10 16 0.00 0.00
10:53 pm 22:53 Partly Cloudy 64 17.8 52 11.1 65 65 NE 5 7 29.95 1014 10 16 0.00 0.00
11:53 pm 23:53 Mostly Clear 61 16.1 54 12.2 78 78 Calm 29.96 1015 10 16 0.00 0.00

Powered by AerisWeather